| time (UTC) | temp F | wind direction | speed MPH | gust MPH | rain 1hr in | rain 24hr in | rain mn in | humidity % | barometer mb |
| 20260504045206 | 95 | 0.0 | 0.0 | 0.00 | 0.00 | 0.00 | 47 | 990.4 | |
| 20260504043707 | 94 | 0.0 | 0.0 | 0.00 | 0.00 | 0.00 | 48 | 990.4 | |
| 20260504042206 | 94 | 0.0 | 0.0 | 0.00 | 0.00 | 0.00 | 49 | 990.3 | |
| 20260504040706 | 93 | 0.0 | 0.0 | 0.00 | 0.00 | 0.00 | 50 | 990.1 | |
| 20260504035206 | 92 | 0.0 | 0.0 | 0.00 | 0.00 | 0.00 | 51 | 990.0 | |
| 20260504033706 | 91 | 0.0 | 0.0 | 0.00 | 0.00 | 0.00 | 53 | 990.3 | |
| 20260504032205 | 90 | 0.0 | 0.0 | 0.00 | 0.00 | 0.00 | 54 | 990.2 | |
| 20260504030705 | 90 | 0.0 | 0.0 | 0.00 | 0.00 | 0.00 | 55 | 990.1 | |
| 20260504025205 | 89 | 0.0 | 0.0 | 0.00 | 0.00 | 0.00 | 56 | 990.0 | |
| 20260504023705 | 89 | 0.0 | 0.0 | 0.00 | 0.00 | 0.00 | 57 | 989.8 | |
| 20260504022205 | 88 | 0.0 | 0.0 | 0.00 | 0.00 | 0.00 | 58 | 989.6 | |
| 20260504020705 | 88 | 0.0 | 0.0 | 0.00 | 0.00 | 0.00 | 59 | 989.4 | |
| 20260504015205 | 88 | 0.0 | 0.0 | 0.00 | 0.00 | 0.00 | 59 | 989.2 | |
| 20260504013704 | 88 | 0.0 | 0.0 | 0.00 | 0.00 | 0.00 | 59 | 989.0 | |
| 20260504012204 | 88 | 0.0 | 0.0 | 0.00 | 0.00 | 0.00 | 59 | 988.9 | |
| 20260504010704 | 88 | 0.0 | 0.0 | 0.00 | 0.00 | 0.00 | 60 | 988.7 | |
| 20260504005204 | 88 | 0.0 | 0.0 | 0.00 | 0.00 | 0.00 | 59 | 988.6 | |
| 20260504003704 | 88 | 0.0 | 0.0 | 0.00 | 0.00 | 0.00 | 59 | 988.3 | |
| 20260504002204 | 88 | 0.0 | 0.0 | 0.00 | 0.00 | 0.00 | 59 | 988.2 | |
| 20260504000703 | 88 | 0.0 | 0.0 | 0.00 | 0.00 | 0.00 | 59 | 988.0 | |
| 20260503235203 | 88 | 0.0 | 0.0 | 0.00 | 0.00 | 0.00 | 59 | 987.7 | |
| 20260503233703 | 88 | 0.0 | 0.0 | 0.00 | 0.00 | 0.00 | 59 | 987.6 | |
| 20260503232204 | 88 | 0.0 | 0.0 | 0.00 | 0.00 | 0.00 | 59 | 987.5 | |
| 20260503230703 | 88 | 0.0 | 0.0 | 0.00 | 0.00 | 0.00 | 58 | 987.4 | |
| 20260503225203 | 89 | 0.0 | 0.0 | 0.00 | 0.00 | 0.00 | 58 | 987.4 | |
| 20260503223703 | 89 | 0.0 | 0.0 | 0.00 | 0.00 | 0.00 | 58 | 987.3 | |
| 20260503222203 | 89 | 0.0 | 0.0 | 0.00 | 0.00 | 0.00 | 58 | 987.3 | |
| 20260503220703 | 89 | 0.0 | 0.0 | 0.00 | 0.00 | 0.00 | 58 | 987.2 | |
| 20260503215203 | 89 | 0.0 | 0.0 | 0.00 | 0.00 | 0.00 | 57 | 987.2 | |
| 20260503213702 | 89 | 0.0 | 0.0 | 0.00 | 0.00 | 0.00 | 57 | 987.2 | |
| 20260503212202 | 89 | 0.0 | 0.0 | 0.00 | 0.00 | 0.00 | 57 | 987.3 | |
| 20260503210702 | 89 | 0.0 | 0.0 | 0.00 | 0.00 | 0.00 | 57 | 987.4 | |
| 20260503205202 | 90 | 0.0 | 0.0 | 0.00 | 0.00 | 0.00 | 56 | 987.5 | |
| 20260503203702 | 90 | 0.0 | 0.0 | 0.00 | 0.00 | 0.00 | 55 | 987.8 | |
| 20260503202202 | 90 | 0.0 | 0.0 | 0.00 | 0.00 | 0.00 | 55 | 988.0 | |
| 20260503200702 | 91 | 0.0 | 0.0 | 0.00 | 0.00 | 0.00 | 55 | 988.1 | |
| 20260503195202 | 91 | 0.0 | 0.0 | 0.00 | 0.00 | 0.00 | 54 | 987.9 | |
| 20260503193701 | 91 | 0.0 | 0.0 | 0.00 | 0.00 | 0.00 | 54 | 988.0 | |
| 20260503192201 | 91 | 0.0 | 0.0 | 0.00 | 0.00 | 0.00 | 53 | 988.1 | |
| 20260503190702 | 91 | 0.0 | 0.0 | 0.00 | 0.00 | 0.00 | 53 | 988.2 | |
| 20260503185201 | 92 | 0.0 | 0.0 | 0.00 | 0.00 | 0.00 | 52 | 988.2 | |
| 20260503183701 | 92 | 0.0 | 0.0 | 0.00 | 0.00 | 0.00 | 52 | 988.3 | |
| 20260503182201 | 93 | 0.0 | 0.0 | 0.00 | 0.00 | 0.00 | 52 | 988.4 | |
| 20260503180701 | 92 | 0.0 | 0.0 | 0.00 | 0.00 | 0.00 | 52 | 988.4 | |
| 20260503175201 | 93 | 0.0 | 0.0 | 0.00 | 0.00 | 0.00 | 52 | 988.4 | |
| 20260503173701 | 93 | 0.0 | 0.0 | 0.00 | 0.00 | 0.00 | 52 | 988.4 | |
| 20260503172201 | 93 | 0.0 | 0.0 | 0.00 | 0.00 | 0.00 | 51 | 988.5 | |
| 20260503170701 | 93 | 0.0 | 0.0 | 0.00 | 0.00 | 0.00 | 50 | 988.4 | |
| 20260503150701 | 96 | 0.0 | 0.0 | 0.00 | 0.00 | 0.00 | 42 | 987.2 | |
| 20260503130700 | 100 | 0.0 | 0.0 | 0.00 | 0.00 | 0.00 | 33 | 985.9 | |
| 20260503110658 | 107 | 0.0 | 0.0 | 0.00 | 0.00 | 0.00 | 26 | 985.6 | |
| 20260503080657 | 107 | 0.0 | 0.0 | 0.00 | 0.00 | 0.00 | 24 | 987.7 | |
| 20260503072156 | 104 | 0.0 | 0.0 | 0.00 | 0.00 | 0.00 | 25 | 988.5 | |
| 20260503070656 | 102 | 0.0 | 0.0 | 0.00 | 0.00 | 0.00 | 29 | 988.6 | |
| 20260503053655 | 97 | 0.0 | 0.0 | 0.00 | 0.00 | 0.00 | 38 | 989.6 | |
| 20260503052155 | 97 | 0.0 | 0.0 | 0.00 | 0.00 | 0.00 | 40 | 989.7 | |
| 20260503050656 | 96 | 0.0 | 0.0 | 0.00 | 0.00 | 0.00 | 40 | 989.9 |